sat.trackr.live / text

‹ back to catalog

STARLINK-4000

NORAD 52605 · 2022-052H

PAYLOAD ACTIVE UNKNOWN

§ Identity

Operator
Country
US
Launch date
2022-05-14
Launch site
AFETR
Launch vehicle
Mass (kg)
RCS (m²)

Purposes: comms

External: N2YO · Heavens-Above · Gunter

§ Orbital elements

Epoch: 2026-05-24T15:30:58.777632Z

Period
95.44 min
Inclination
53.2161°
Eccentricity
0.0001266
Mean motion
15.08843226 rev/d
Perigee alt
538.9 km
Apogee alt
540.6 km
Semi-major
6,917.9 km
B*
-2.7630e-6
RAAN
302.9148°
Arg perigee
88.6561°
Mean anomaly
271.4576°
Rev number
22,225

§ Raw data

STARLINK-40001 52605U 22052H   26144.64651363 -.00000332  00000+0 -27630-5 0  99922 52605  53.2161 302.9148 0001266  88.6561 271.4576 15.08843226222258

JSON: /api/v1/satellites/52605 · /tle

For live sub-satellite position, see the globe view (requires WebGL).

§ Visibility from observer

Set your observer location to see the next 7 days of passes ≥ 10°. The values pass through the URL so the page stays shareable.

No JS? Fill the form by hand. The geolocation button needs JavaScript.